FW5165 Weather Reports


Display with metric or nautical units.
time (UTC)temp
F
wind
direction
speed
MPH
gust
MPH
rain 1hr
in
rain 24hr
in
rain mn
in
humidity
%
barometer
mb
20260509223523 82 236 3.0 10.0 0.00 0.00 0.00 54 1013.3
20260509223023 83 235 6.0 10.0 0.00 0.00 0.00 52 1013.4
20260509222521 84 217 2.0 6.0 0.00 0.00 0.00 54 1013.4
20260509222020 84 261 2.0 5.0 0.00 0.00 0.00 52 1013.5
20260509221519 84 273 1.0 7.0 0.00 0.00 0.00 53 1013.5
20260509221018 84 280 2.0 7.0 0.00 0.00 0.00 54 1013.5
20260509220516 83 292 1.0 7.0 0.00 0.00 0.00 54 1013.5
20260509220015 82 250 2.0 8.0 0.00 0.00 0.00 56 1013.5
20260509215518 81 164 3.0 8.0 0.00 0.00 0.00 56 1013.4
20260509215014 82 204 3.0 7.0 0.00 0.00 0.00 56 1013.5
20260509214513 82 129 2.0 7.0 0.00 0.00 0.00 54 1013.7
20260509214015 82 180 4.0 7.0 0.00 0.00 0.00 55 1013.7
20260509213512 81 207 2.0 9.0 0.00 0.00 0.00 56 1013.7
20260509213014 82 227 5.0 9.0 0.00 0.00 0.00 56 1013.7
20260509212510 82 250 1.0 7.0 0.00 0.00 0.00 56 1013.8
20260509212009 81 111 2.0 7.0 0.00 0.00 0.00 55 1013.9
20260509211508 80 229 3.0 7.0 0.00 0.00 0.00 57 1014.0
20260509211008 81 222 3.0 8.0 0.00 0.00 0.00 55 1014.0
20260509210506 81 267 2.0 9.0 0.00 0.00 0.00 60 1014.1
20260509210006 80 228 6.0 9.0 0.00 0.00 0.00 60 1014.1
20260509205504 80 198 4.0 8.0 0.00 0.00 0.00 59 1014.2
20260509205005 79 76 1.0 9.0 0.00 0.00 0.00 57 1014.2
20260509204510 80 273 3.0 9.0 0.00 0.00 0.00 57 1014.3
20260509204003 80 264 1.0 7.0 0.00 0.00 0.00 59 1014.3
20260509203503 78 244 2.0 9.0 0.00 0.00 0.00 59 1014.4
20260509203005 79 221 6.0 10.0 0.00 0.00 0.00 59 1014.4
20260509202502 79 197 6.0 8.0 0.00 0.00 0.00 59 1014.4
20260509202105 79 152 2.0 7.0 0.00 0.00 0.00 57 1014.4
20260509201501 78 250 2.0 9.0 0.00 0.00 0.00 61 1014.4
20260509201102 78 248 4.0 9.0 0.00 0.00 0.00 60 1014.5
20260509200559 79 222 6.0 9.0 0.00 0.00 0.00 59 1014.5
20260509200110 79 269 4.0 6.0 0.00 0.00 0.00 60 1014.5
20260509195600 78 315 1.0 6.0 0.00 0.00 0.00 61 1014.6
20260509195056 77 240 3.0 9.0 0.00 0.00 0.00 60 1014.6
20260509194558 78 291 3.0 9.0 0.00 0.00 0.00 61 1014.7
20260509194057 78 282 4.0 7.0 0.00 0.00 0.00 61 1014.7
20260509193555 77 273 1.0 9.0 0.00 0.00 0.00 61 1014.7
20260509193056 78 213 6.0 9.0 0.00 0.00 0.00 61 1014.7
20260509192554 78 289 0.0 7.0 0.00 0.00 0.00 61 1014.9
20260509192055 77 215 2.0 7.0 0.00 0.00 0.00 62 1015.0
20260509191552 77 303 2.0 6.0 0.00 0.00 0.00 60 1015.1
20260509191053 77 266 2.0 6.0 0.00 0.00 0.00 62 1015.3
20260509190550 76 277 1.0 8.0 0.00 0.00 0.00 62 1015.1
20260509190049 75 223 4.0 9.0 0.00 0.00 0.00 64 1015.2
20260509185548 76 232 4.0 9.0 0.00 0.00 0.00 64 1015.2
20260509185048 75 184 1.0 7.0 0.00 0.00 0.00 64 1015.2
20260509184548 75 221 1.0 7.0 0.00 0.00 0.00 65 1015.3
20260509184046 74 234 4.0 8.0 0.00 0.00 0.00 64 1015.4
20260509183546 75 205 5.0 8.0 0.00 0.00 0.00 64 1015.4
20260509183101 75 229 5.0 7.0 0.00 0.00 0.00 64 1015.4
20260509182546 74 273 0.0 8.0 0.00 0.00 0.00 64 1015.4
20260509182045 75 265 3.0 8.0 0.00 0.00 0.00 64 1015.6
20260509181546 75 260 3.0 7.0 0.00 0.00 0.00 66 1015.6
20260509181044 74 262 2.0 6.0 0.00 0.00 0.00 67 1015.5
20260509180546 74 278 2.0 6.0 0.00 0.00 0.00 68 1015.6
20260509180039 73 206 2.0 7.0 0.00 0.00 0.00 67 1015.6
20260509175538 73 217 4.0 7.0 0.00 0.00 0.00 66 1015.5
20260509175038 73 229 2.0 5.0 0.00 0.00 0.00 67 1015.5
20260509174547 72 261 2.0 7.0 0.00 0.00 0.00 66 1015.7
20260509174038 73 360 4.0 7.0 0.00 0.00 0.00 64 1015.6
20260509173536 73 340 0.0 6.0 0.00 0.00 0.00 67 1015.6
20260509173039 72 269 0.0 6.0 0.00 0.00 0.00 67 1015.7
20260509172535 71 269 3.0 6.0 0.00 0.00 0.00 67 1015.6
20260509172036 72 228 1.0 6.0 0.00 0.00 0.00 67 1015.6
20260509171541 72 237 3.0 6.0 0.00 0.00 0.00 70 1015.7
20260509171033 71 277 1.0 3.0 0.00 0.00 0.00 70 1015.6
20260509170531 70 300 0.0 5.0 0.00 0.00 0.00 70 1015.6
20260509170032 70 218 2.0 7.0 0.00 0.00 0.00 70 1015.7
20260509165528 69 260 1.0 7.0 0.00 0.00 0.00 71 1015.6
20260509165028 69 271 4.0 7.0 0.00 0.00 0.00 72 1015.6
20260509164528 69 229 0.0 7.0 0.00 0.00 0.00 75 1015.5
20260509164027 69 257 1.0 5.0 0.00 0.00 0.00 74 1015.6
20260509163530 68 221 3.0 5.0 0.00 0.00 0.00 73 1015.6
20260509163041 68 236 2.0 5.0 0.00 0.00 0.00 73 1015.7
20260509162529 67 253 2.0 5.0 0.00 0.00 0.00 74 1015.7
20260509162028 67 260 2.0 5.0 0.00 0.00 0.00 72 1015.7
20260509161532 67 166 3.0 4.0 0.00 0.00 0.00 73 1015.8
20260509161026 67 220 2.0 5.0 0.00 0.00 0.00 74 1015.7
20260509160526 66 205 1.0 5.0 0.00 0.00 0.00 75 1015.7
20260509160028 66 246 3.0 5.0 0.00 0.00 0.00 74 1015.7
20260509155524 66 245 3.0 5.0 0.00 0.00 0.00 75 1015.7
20260509155024 66 273 1.0 4.0 0.00 0.00 0.00 75 1015.7
20260509154524 66 328 1.0 3.0 0.00 0.00 0.00 76 1015.6
20260509154026 65 344 1.0 4.0 0.00 0.00 0.00 77 1015.6
20260509153524 65 301 0.0 4.0 0.00 0.00 0.00 77 1015.5
20260509153041 64 261 1.0 4.0 0.00 0.00 0.00 77 1015.5
20260509152524 64 275 1.0 4.0 0.00 0.00 0.00 77 1015.6
20260509152024 64 360 0.0 4.0 0.00 0.00 0.00 79 1015.6
20260509151523 63 346 1.0 4.0 0.00 0.00 0.00 79 1015.7
20260509151023 63 327 0.0 2.0 0.00 0.00 0.00 79 1015.6
20260509150525 63 322 0.0 2.0 0.00 0.00 0.00 80 1015.6
20260509150033 62 286 0.0 2.0 0.00 0.00 0.00 81 1015.7
20260509145522 62 5 0.0 1.0 0.00 0.00 0.00 82 1015.6
20260509145022 61 5 0.0 1.0 0.00 0.00 0.00 83 1015.6
20260509144521 61 17 0.0 1.0 0.00 0.00 0.00 83 1015.6
20260509144021 61 17 0.0 1.0 0.00 0.00 0.00 83 1015.6
20260509143521 61 13 0.0 1.0 0.00 0.00 0.00 83 1015.7
20260509143021 60 42 0.0 1.0 0.00 0.00 0.00 83 1015.5
20260509142520 60 116 0.0 1.0 0.00 0.00 0.00 82 1015.5
20260509142022 60 87 0.0 1.0 0.00 0.00 0.00 83 1015.5
20260509141520 60 52 0.0 1.0 0.00 0.00 0.00 83 1015.4
20260509141019 60 50 0.0 1.0 0.00 0.00 0.00 83 1015.4
20260509140520 60 51 0.0 1.0 0.00 0.00 0.00 83 1015.4
20260509140020 59 69 0.0 1.0 0.00 0.00 0.00 82 1015.4
20260509135519 59 44 0.0 2.0 0.00 0.00 0.00 82 1015.5
20260509135020 59 74 0.0 2.0 0.00 0.00 0.00 82 1015.3
20260509134518 59 89 0.0 4.0 0.00 0.00 0.00 83 1015.4
20260509134018 59 132 1.0 4.0 0.00 0.00 0.00 83 1015.3
20260509133518 59 113 0.0 2.0 0.00 0.00 0.00 83 1015.3
20260509133018 59 97 0.0 2.0 0.00 0.00 0.00 83 1015.3
20260509132518 59 105 0.0 2.0 0.00 0.00 0.00 84 1015.3
20260509132017 59 96 0.0 2.0 0.00 0.00 0.00 86 1015.3
20260509131523 59 33 0.0 4.0 0.00 0.00 0.00 86 1015.2
20260509131016 59 26 0.0 4.0 0.00 0.00 0.00 87 1015.3
20260509130518 59 73 0.0 1.0 0.00 0.00 0.00 87 1015.3
20260509130016 59 47 0.0 1.0 0.00 0.00 0.00 87 1015.3
20260509125521 59 341 0.0 2.0 0.00 0.00 0.00 87 1015.4
20260509125019 59 341 0.0 4.0 0.00 0.00 0.00 87 1015.3
20260509124514 59 341 1.0 5.0 0.00 0.00 0.00 87 1015.3
20260509124014 59 341 3.0 5.0 0.00 0.00 0.00 87 1015.4
20260509123513 59 347 3.0 5.0 0.00 0.00 0.00 86 1015.4
20260509123012 59 347 3.0 4.0 0.00 0.00 0.00 85 1015.3
20260509122512 60 347 1.0 3.0 0.00 0.00 0.00 84 1015.3
20260509122010 60 347 2.0 5.0 0.00 0.00 0.00 83 1015.3
20260509121512 60 360 1.0 5.0 0.00 0.00 0.00 82 1015.3
20260509121007 61 38 0.0 2.0 0.00 0.00 0.00 81 1015.2
20260509120507 61 38 1.0 2.0 0.00 0.00 0.00 81 1015.2
20260509120005 61 38 0.0 2.0 0.00 0.00 0.00 81 1015.1
20260509115505 61 38 1.0 4.0 0.00 0.00 0.00 80 1015.1
20260509115005 61 38 1.0 4.0 0.00 0.00 0.00 79 1015.0
20260509114509 62 47 1.0 2.0 0.00 0.00 0.00 79 1015.0
20260509114003 62 47 0.0 0.0 0.00 0.00 0.00 78 1014.9
20260509113504 62 47 0.0 0.0 0.00 0.00 0.00 78 1014.8
20260509113003 62 47 0.0 2.0 0.00 0.00 0.00 78 1014.8
20260509112502 62 47 0.0 4.0 0.00 0.00 0.00 78 1014.8
20260509112002 63 46 0.0 4.0 0.00 0.00 0.00 78 1014.7
20260509111502 63 46 0.0 4.0 0.00 0.00 0.00 79 1014.7
20260509111001 63 51 0.0 4.0 0.00 0.00 0.00 80 1014.7
20260509110601 62 50 0.0 2.0 0.00 0.00 0.00 80 1014.6
20260509110059 62 50 0.0 1.0 0.00 0.00 0.00 81 1014.6
20260509105558 62 50 0.0 0.0 0.00 0.00 0.00 80 1014.7
20260509105058 62 50 0.0 0.0 0.00 0.00 0.00 81 1014.7
20260509104559 62 50 0.0 0.0 0.00 0.00 0.00 80 1014.8
20260509104057 62 50 0.0 1.0 0.00 0.00 0.00 81 1014.7
20260509103556 62 50 0.0 2.0 0.00 0.00 0.00 81 1014.8
20260509103102 62 50 1.0 2.0 0.00 0.00 0.00 81 1014.7
20260509102554 63 50 0.0 1.0 0.00 0.00 0.00 80 1014.8
20260509102054 63 50 0.0 1.0 0.00 0.00 0.00 80 1014.8
20260509101553 63 50 0.0 2.0 0.00 0.00 0.00 79 1015.0
20260509101052 64 50 0.0 2.0 0.00 0.00 0.00 78 1015.0
20260509100550 64 50 0.0 1.0 0.00 0.00 0.00 78 1015.0
20260509100055 64 50 0.0 1.0 0.00 0.00 0.00 78 1015.0
20260509095550 64 50 0.0 1.0 0.00 0.00 0.00 78 1015.0
20260509095048 64 49 0.0 1.0 0.00 0.00 0.00 78 1015.0
20260509094548 64 49 0.0 1.0 0.00 0.00 0.00 78 1015.0
20260509094047 64 49 0.0 1.0 0.00 0.00 0.00 78 1015.1
20260509093545 64 50 0.0 2.0 0.00 0.00 0.00 77 1015.1
20260509093046 65 49 0.0 2.0 0.00 0.00 0.00 76 1015.2
20260509092546 65 51 0.0 4.0 0.00 0.00 0.00 76 1015.1
20260509092043 65 51 0.0 5.0 0.00 0.00 0.00 76 1015.2
20260509091642 65 50 1.0 5.0 0.00 0.00 0.00 76 1015.2
20260509091043 66 53 0.0 2.0 0.00 0.00 0.00 75 1015.3
20260509090541 66 53 0.0 4.0 0.00 0.00 0.00 75 1015.3
20260509090048 66 53 0.0 4.0 0.00 0.00 0.00 74 1015.3
20260509085538 66 53 1.0 6.0 0.00 0.00 0.00 74 1015.4
20260509085038 66 51 3.0 6.0 0.00 0.00 0.00 74 1015.3
20260509084538 66 57 4.0 5.0 0.00 0.00 0.00 74 1015.3
20260509084037 66 49 1.0 5.0 0.00 0.00 0.00 74 1015.4
20260509083535 67 51 0.0 6.0 0.00 0.00 0.00 74 1015.4
20260509083036 67 50 3.0 6.0 0.00 0.00 0.00 74 1015.4
20260509082535 67 51 2.0 5.0 0.00 0.00 0.00 74 1015.5
20260509082034 67 49 0.0 2.0 0.00 0.00 0.00 75 1015.5
20260509081533 67 49 0.0 5.0 0.00 0.00 0.00 74 1015.6
20260509081032 67 44 2.0 5.0 0.00 0.00 0.00 74 1015.7
20260509080532 67 51 3.0 5.0 0.00 0.00 0.00 75 1015.6
20260509080032 67 51 0.0 4.0 0.00 0.00 0.00 75 1015.7
20260509075530 67 54 0.0 0.0 0.00 0.00 0.00 74 1015.8
20260509075029 68 54 0.0 0.0 0.00 0.00 0.00 73 1015.7
20260509074529 68 54 0.0 4.0 0.00 0.00 0.00 73 1015.8
20260509074034 68 54 0.0 6.0 0.00 0.00 0.00 73 1015.7
20260509073531 68 53 4.0 6.0 0.00 0.00 0.00 73 1015.8
20260509073027 68 52 2.0 5.0 0.00 0.00 0.00 74 1015.8
20260509072528 68 51 3.0 5.0 0.00 0.00 0.00 74 1015.8
20260509072027 68 48 3.0 5.0 0.00 0.00 0.00 74 1015.8
20260509071526 68 51 4.0 5.0 0.00 0.00 0.00 74 1015.7
20260509071025 68 42 4.0 5.0 0.00 0.00 0.00 74 1015.7
20260509070525 68 128 1.0 4.0 0.00 0.00 0.00 74 1015.6
20260509070024 68 143 0.0 1.0 0.00 0.00 0.00 74 1015.6
20260509065523 68 143 0.0 1.0 0.00 0.00 0.00 74 1015.6
20260509065023 68 143 0.0 2.0 0.00 0.00 0.00 74 1015.5
20260509064523 68 143 0.0 2.0 0.00 0.00 0.00 74 1015.5
20260509064024 69 143 0.0 1.0 0.00 0.00 0.00 74 1015.6
20260509063527 69 143 0.0 1.0 0.00 0.00 0.00 74 1015.7
20260509063026 69 143 0.0 1.0 0.00 0.00 0.00 74 1015.7
20260509062524 69 143 0.0 1.0 0.00 0.00 0.00 74 1015.8
20260509062022 69 143 0.0 1.0 0.00 0.00 0.00 74 1015.8
20260509061527 69 143 0.0 1.0 0.00 0.00 0.00 74 1015.8
20260509061027 69 143 0.0 1.0 0.00 0.00 0.00 73 1015.8
20260509060522 70 143 0.0 1.0 0.00 0.00 0.00 73 1015.8
20260509060029 70 143 0.0 1.0 0.00 0.00 0.00 74 1015.7
20260509055527 69 143 0.0 1.0 0.00 0.00 0.00 74 1015.7
20260509055025 69 143 0.0 2.0 0.00 0.00 0.00 74 1015.7
20260509054522 69 143 0.0 2.0 0.00 0.00 0.00 74 1015.8
20260509054021 69 143 0.0 2.0 0.00 0.00 0.00 74 1015.8
20260509053522 69 144 0.0 2.0 0.00 0.00 0.00 74 1015.8
20260509053021 69 143 0.0 2.0 0.00 0.00 0.00 75 1015.7
20260509052520 68 140 0.0 4.0 0.00 0.00 0.00 75 1015.8
20260509052020 68 140 0.0 4.0 0.00 0.00 0.00 76 1015.8
20260509051521 67 155 1.0 4.0 0.00 0.00 0.00 77 1015.7
20260509051020 67 188 0.0 2.0 0.00 0.00 0.00 77 1015.7
20260509050520 67 188 0.0 4.0 0.00 0.00 0.00 76 1015.7
20260509050039 68 214 1.0 5.0 0.00 0.00 0.00 75 1015.8
20260509045518 70 242 0.0 8.0 0.00 0.00 0.00 72 1015.7
20260509045018 74 246 2.0 5.0 0.00 0.00 0.00 64 1015.7
20260509044519 75 242 0.0 0.0 0.00 0.00 0.00 62 1015.5
20260509044018 75 242 0.0 1.0 0.00 0.00 0.00 62 1015.5
20260509043522 74 242 0.0 1.0 0.00 0.00 0.00 63 1015.5
20260509043017 74 242 0.0 0.0 0.00 0.00 0.00 63 1015.5
20260509042517 74 242 0.0 0.0 0.00 0.00 0.00 63 1015.4
20260509042022 74 242 0.0 1.0 0.00 0.00 0.00 63 1015.4
20260509041517 75 242 0.0 2.0 0.00 0.00 0.00 64 1015.3
20260509041016 75 242 0.0 1.0 0.00 0.00 0.00 64 1015.2
20260509040516 75 243 0.0 1.0 0.00 0.00 0.00 63 1015.1
20260509040015 75 243 0.0 1.0 0.00 0.00 0.00 63 1015.1
20260509035520 75 243 0.0 1.0 0.00 0.00 0.00 63 1015.1
20260509035015 75 243 0.0 1.0 0.00 0.00 0.00 63 1015.2
20260509034515 75 243 0.0 0.0 0.00 0.00 0.00 63 1015.2
20260509034014 75 243 0.0 0.0 0.00 0.00 0.00 63 1015.2
20260509033514 75 243 0.0 0.0 0.00 0.00 0.00 63 1015.2
20260509033015 76 243 0.0 0.0 0.00 0.00 0.00 63 1015.2
20260509032514 76 243 0.0 0.0 0.00 0.00 0.00 63 1015.2
20260509032013 76 243 0.0 1.0 0.00 0.00 0.00 62 1015.2
20260509031525 76 246 0.0 1.0 0.00 0.00 0.00 62 1015.1
20260509031013 77 261 0.0 1.0 0.00 0.00 0.00 61 1015.1
20260509030514 77 184 0.0 1.0 0.00 0.00 0.00 61 1015.1
20260509030014 77 5 0.0 1.0 0.00 0.00 0.00 60 1015.0
20260509025512 78 355 0.0 1.0 0.00 0.00 0.00 61 1015.0
20260509025012 78 327 0.0 1.0 0.00 0.00 0.00 61 1015.0
20260509024517 78 315 0.0 1.0 0.00 0.00 0.00 60 1015.0
20260509024014 78 5 0.0 1.0 0.00 0.00 0.00 60 1015.0
20260509023512 78 180 0.0 2.0 0.00 0.00 0.00 61 1014.9
20260509023018 78 205 0.0 4.0 0.00 0.00 0.00 60 1015.0
20260509022515 79 240 1.0 4.0 0.00 0.00 0.00 60 1014.9
20260509022012 79 205 1.0 3.0 0.00 0.00 0.00 59 1014.9
20260509021516 79 237 2.0 4.0 0.00 0.00 0.00 58 1014.9
20260509021011 79 237 0.0 4.0 0.00 0.00 0.00 58 1014.8
20260509020510 79 237 1.0 6.0 0.00 0.00 0.00 58 1014.8
20260509020012 80 238 2.0 6.0 0.00 0.00 0.00 57 1014.9
20260509015510 80 261 2.0 5.0 0.00 0.00 0.00 57 1015.0
20260509015010 80 290 2.0 5.0 0.00 0.00 0.00 58 1015.1
20260509014509 80 240 2.0 6.0 0.00 0.00 0.00 57 1014.9
20260509014009 81 238 2.0 6.0 0.00 0.00 0.00 57 1015.0
20260509013509 81 278 3.0 5.0 0.00 0.00 0.00 55 1015.0
20260509013012 81 269 2.0 5.0 0.00 0.00 0.00 54 1015.0
20260509012508 82 263 1.0 5.0 0.00 0.00 0.00 55 1014.9
20260509012008 82 274 2.0 5.0 0.00 0.00 0.00 55 1015.0
20260509011510 82 267 1.0 5.0 0.00 0.00 0.00 55 1015.1
20260509011010 82 266 0.0 6.0 0.00 0.00 0.00 54 1015.1
20260509010507 81 267 2.0 6.0 0.00 0.00 0.00 56 1015.1
20260509010013 81 256 2.0 7.0 0.00 0.00 0.00 58 1015.1
20260509005507 81 274 4.0 7.0 0.00 0.00 0.00 56 1015.2
20260509005007 81 277 1.0 7.0 0.00 0.00 0.00 55 1015.1
20260509004506 81 258 3.0 7.0 0.00 0.00 0.00 55 1015.2
20260509004005 81 250 4.0 6.0 0.00 0.00 0.00 54 1015.3
20260509003605 81 268 2.0 8.0 0.00 0.00 0.00 57 1015.3
20260509003004 81 251 5.0 9.0 0.00 0.00 0.00 56 1015.5
20260509002503 81 252 5.0 9.0 0.00 0.00 0.00 55 1015.5
20260509002003 81 260 1.0 10.0 0.00 0.00 0.00 57 1015.6
20260509001504 82 286 5.0 9.0 0.00 0.00 0.00 56 1015.6
20260509001002 81 253 2.0 6.0 0.00 0.00 0.00 56 1015.6
20260509000502 81 335 4.0 7.0 0.00 0.00 0.00 57 1015.6
20260509000002 81 252 5.0 8.0 0.00 0.00 0.00 55 1015.6
20260508235501 81 263 4.0 8.0 0.00 0.00 0.00 54 1015.6
20260508235105 81 311 1.0 6.0 0.00 0.00 0.00 55 1015.6
20260508234610 81 259 2.0 8.0 0.00 0.00 0.00 58 1015.7
20260508234101 80 231 4.0 8.0 0.00 0.00 0.00 57 1015.7
20260508233600 80 200 5.0 8.0 0.00 0.00 0.00 58 1015.7
20260508233101 81 238 4.0 8.0 0.00 0.00 0.00 57 1015.7
20260508232559 81 248 5.0 7.0 0.00 0.00 0.00 56 1015.8
20260508232059 81 235 4.0 6.0 0.00 0.00 0.00 57 1015.8
20260508231558 81 256 2.0 7.0 0.00 0.00 0.00 56 1015.8
20260508231057 81 267 2.0 9.0 0.00 0.00 0.00 57 1015.9
20260508230558 80 217 5.0 9.0 0.00 0.00 0.00 60 1016.0
20260508225557 81 238 5.0 7.0 0.00 0.00 0.00 56 1016.1
20260508225055 81 218 3.0 7.0 0.00 0.00 0.00 55 1016.2
20260508224556 80 236 0.0 8.0 0.00 0.00 0.00 58 1016.2
20260508224055 80 224 5.0 8.0 0.00 0.00 0.00 58 1016.4